This is the latest recevied weather packets stored in our database for station/object S56WDN-10. If no packets are shown the sender has not sent any weather packets the latest 10 day(s).
| Time | Temp. | Humidity | Pressure | Rain* | Wind** | Luminosity | Snow |
|---|---|---|---|---|---|---|---|
| 1777508534 | 3.33° C | 89% | 1026 hPa | 0 mm | - | - | - |
| 1777508234 | 3.89° C | 90% | 1025.9 hPa | 0 mm | - | - | - |
| 1777507934 | 3.89° C | 90% | 1025.9 hPa | 0 mm | - | - | - |
| 1777507034 | 3.89° C | 90% | 1025.8 hPa | 0 mm | - | - | - |
| 1777502534 | 5° C | 90% | 1025 hPa | 0 mm | - | - | - |
| 1777502234 | 5.56° C | 90% | 1025 hPa | 0 mm | - | - | - |
| 1777501934 | 5.56° C | 90% | 1024.8 hPa | 0 mm | - | - | - |
| 1777501334 | 5.56° C | 90% | 1024.8 hPa | 0 mm | - | - | - |
| 1777500734 | 5.56° C | 90% | 1024.7 hPa | 0 mm | - | - | - |
| 1777500434 | 5.56° C | 90% | 1024.8 hPa | 0 mm | - | - | - |
| 1777500134 | 5.56° C | 90% | 1024.7 hPa | 0 mm | - | - | - |
| 1777499534 | 6.11° C | 90% | 1024.3 hPa | 0 mm | - | - | - |
| 1777498634 | 6.11° C | 90% | 1023.9 hPa | 0 mm | - | - | - |
| 1777498034 | 6.11° C | 90% | 1023.9 hPa | 0 mm | - | - | - |
| 1777497734 | 6.11° C | 90% | 1023.8 hPa | 0 mm | - | - | - |
| 1777497434 | 6.11° C | 90% | 1023.9 hPa | 0 mm | - | - | - |
| 1777496834 | 6.67° C | 90% | 1023.9 hPa | 0 mm | - | - | - |
| 1777494434 | 6.67° C | 89% | 1023.6 hPa | 0 mm | - | - | - |
| 1777494134 | 6.67° C | 89% | 1023.6 hPa | 0 mm | - | - | - |
| 1777493535 | 6.67° C | 89% | 1023.5 hPa | 0 mm | - | - | - |
| 1777492335 | 6.67° C | 88% | 1023.3 hPa | 0 mm | - | - | - |
| 1777491735 | 7.22° C | 88% | 1023 hPa | 0 mm | - | - | - |
| 1777491435 | 7.22° C | 88% | 1023 hPa | 0 mm | - | - | - |
| 1777491135 | 7.22° C | 88% | 1023 hPa | 0 mm | - | - | - |
| 1777490835 | 7.22° C | 88% | 1023 hPa | 0 mm | - | - | - |
* Rain latest hour (hover to see other rain measurements)
** Current wind speed in m/s (hover to see current wind gust speed)